Temp
8 7 7 7 4 5 5 4 4 4 4 7 7 9 11 11 11 11 11 12 11 11 11 11 11 11 13 12 15 18 18 18 19 19 19 19 19 20 18 20 21 21 22 23 23 24 23
4 4 3 3 4 4 3 4 4 4 4 4 4 5 9 11 11 11 11 11 12 11 11 11 10 11 10 9 18 17 18 18 19 19 19 19 19 21 21 21 19 22 22 22 23 23 23
3 3 3 2 3 3 3 4 3 4 4 4 3 3 5 9 10 11 11 11 12 12 11 11 10 9 9 13 18 16 16 16 18 18 19 20 20 20 20 18 21 21 20 20 21 22 20
2 2 3 3 2 2 3 3 3 3 4 4 4 3 3 4 6 10 11 11 12 12 11 11 9 8 7 17 17 18 17 17 17 18 18 19 19 20 20 20 20 19 19 18 20 19 19
2 2 2 2 2 2 2 3 3 3 3 3 3 3 3 3 3 7 10 11 12 11 11 9 9 9 9 15 16 18 17 17 17 18 19 19 19 19 19 17 15 17 16 18 19 22 18
1 2 2 2 2 2 2 2 3 3 3 3 3 3 3 3 3 4 9 11 13 12 10 8 8 7 12 17 17 18 18 18 18 18 19 19 19 15 15 15 14 16 18 20 20 21 19
1 2 2 2 2 3 3 3 3 3 3 3 2 3 3 3 3 2 8 10 12 10 9 10 12 12 15 16 17 18 18 17 18 19 16 18 15 14 15 16 19 19 19 20 20 21 20
1 2 2 2 2 2 2 2 3 3 3 3 3 2 3 3 3 3 4 7 11 8 8 11 12 12 13 15 15 17 18 17 17 16 17 16 15 17 19 19 20 20 19 19 21 22 21
1 2 2 2 2 2 2 2 2 3 3 3 3 2 2 3 4 4 5 8 10 10 8 11 12 13 14 15 15 16 18 18 17 16 17 16 17 19 19 19 20 20 20 20 20 21 22
1 2 2 2 2 2 2 2 2 3 3 3 3 2 2 2 3 5 5 7 9 9 7 11 15 15 14 15 16 17 18 18 17 17 17 17 19 19 20 20 20 19 21 21 21 20 17
1 2 2 2 2 2 2 3 3 3 3 3 2 2 2 2 4 6 6 7 9 9 5 15 17 18 18 16 18 17 19 18 17 17 17 17 18 18 19 20 21 20 20 21 21 18 19
1 1 2 2 2 2 2 2 2 2 2 2 3 2 2 2 3 7 6 7 9 7 7 15 18 17 17 17 18 19 18 18 19 18 18 18 21 20 19 21 21 21 21 21 20 18 14
0 1 1 2 2 2 2 2 3 2 3 2 2 2 2 2 3 4 5 6 6 6 15 15 17 17 16 16 17 17 16 16 15 15 16 18 18 20 21 19 20 20 19 16 15 13 13
0 1 1 1 1 1 2 2 3 3 2 3 2 2 2 2 3 3 4 5 5 11 12 17 17 17 16 16 16 16 16 15 16 17 15 15 15 19 21 20 19 19 18 13 15 12 15
0 1 1 1 1 1 1 2 2 3 2 3 2 2 2 2 3 2 3 4 7 9 13 14 15 14 15 17 17 16 16 15 16 17 16 15 17 20 21 21 21 19 17 19 17 16 14
0 0 0 0 1 1 2 2 2 2 2 3 2 2 1 4 3 2 3 5 7 10 12 13 12 14 14 16 16 15 15 17 16 18 18 17 16 19 21 21 20 20 20 17 16 14 14
-0 -0 -0 -0 0 1 1 1 2 2 2 2 2 2 2 3 2 1 4 4 7 9 11 10 11 12 13 14 14 16 14 18 18 18 19 18 16 17 19 19 19 18 18 18 17 15 13
-1 -0 -0 0 0 0 0 1 1 2 2 2 2 2 2 3 2 2 3 5 7 9 9 10 11 11 11 12 13 14 14 15 16 16 17 18 16 15 17 19 21 19 19 18 13 15 15
-1 -0 -0 -0 0 0 1 1 1 2 2 2 2 2 2 2 2 2 4 5 6 6 8 10 10 11 12 12 11 13 13 14 13 11 15 17 17 15 16 18 19 19 19 19 18 14 14
-1 -0 -0 -0 0 0 1 1 1 1 2 2 2 1 2 2 4 4 4 5 5 7 7 8 10 10 11 11 13 12 12 13 12 11 11 13 17 16 15 17 18 17 18 19 18 13 14
-1 -0 -0 -0 0 0 1 1 1 1 2 2 2 1 3 3 2 4 5 6 5 5 8 8 8 9 10 9 11 11 12 11 13 12 11 13 14 17 18 18 19 19 19 18 18 18 16
-1 -0 -0 0 0 0 1 1 1 1 1 2 0 1 2 5 4 3 5 5 6 7 7 8 8 9 10 9 10 11 12 10 10 10 10 12 13 15 15 18 19 18 18 18 19 18 18
-0 0 -0 0 0 0 0 0 0 1 1 2 2 2 4 4 4 3 4 5 6 7 8 9 10 9 8 9 12 11 12 10 9 9 7 9 9 14 14 15 16 13 16 18 18 19 19
-0 -0 0 0 0 0 0 0 1 1 0 1 2 1 2 3 4 4 5 5 6 7 7 9 10 9 10 11 11 10 8 8 9 9 8 6 6 10 10 12 12 16 18 18 17 18 19
-0 0 0 0 0 0 0 1 1 1 1 -0 0 1 2 2 4 5 5 6 6 7 8 8 10 11 12 12 9 8 5 7 8 8 8 8 5 7 10 13 14 15 17 17 17 17 19
-0 0 0 0 1 0 0 0 0 1 1 0 1 0 1 2 3 6 6 6 5 6 6 7 9 10 11 8 6 7 6 8 9 8 9 6 5 6 8 12 11 14 16 20 19 14 19
0 0 0 1 1 1 1 1 1 1 1 0 0 0 0 -0 3 5 6 6 7 7 6 7 8 9 10 4 5 6 7 9 8 7 6 5 4 5 6 8 10 16 18 20 15 14 19
1 1 1 1 1 1 1 1 0 0 0 -0 0 0 1 1 3 5 6 8 8 8 6 7 7 8 6 4 5 5 5 7 9 10 7 6 6 7 7 8 10 11 16 16 14 20 20
1 0 0 1 1 1 0 0 0 1 0 -0 0 -0 0 2 3 5 5 7 8 8 8 8 9 9 8 6 5 5 4 6 9 9 11 7 8 7 9 8 10 12 12 12 13 15 18
Height
1530 1527 1529 1528 1528 1527 1526 1526 1524 1523 1522 1520 1520 1519 1518 1517 1517 1515 1513 1513 1511 1509 1508 1507 1505 1503 1502 1501 1490 1491 1491 1490 1491 1491 1491 1492 1492 1491 1490 1486 1481 1477 1476 1477 1476 1474 1474
1525 1523 1525 1525 1525 1523 1522 1520 1519 1519 1518 1517 1517 1514 1513 1513 1512 1511 1510 1509 1509 1506 1505 1503 1502 1500 1499 1498 1486 1487 1488 1488 1488 1489 1489 1489 1489 1489 1486 1483 1482 1476 1475 1474 1474 1473 1472
1522 1520 1520 1521 1521 1520 1518 1516 1515 1514 1514 1513 1513 1512 1509 1508 1507 1507 1506 1505 1505 1503 1501 1500 1500 1497 1493 1481 1483 1483 1483 1483 1485 1486 1487 1487 1488 1488 1486 1484 1478 1476 1478 1473 1471 1469 1476
1519 1517 1516 1516 1516 1515 1514 1513 1512 1510 1509 1509 1509 1508 1506 1505 1503 1503 1502 1502 1502 1500 1498 1497 1496 1495 1481 1477 1477 1476 1479 1480 1482 1484 1486 1486 1487 1485 1487 1485 1481 1482 1478 1485 1468 1466 1474
1515 1514 1512 1512 1512 1511 1510 1509 1508 1508 1507 1505 1504 1504 1504 1503 1500 1498 1498 1497 1498 1497 1494 1494 1493 1492 1476 1472 1469 1470 1473 1476 1480 1482 1484 1485 1486 1485 1486 1489 1492 1482 1492 1483 1473 1463 1471
1510 1509 1509 1508 1507 1506 1506 1505 1504 1504 1504 1503 1501 1500 1500 1500 1498 1496 1494 1494 1494 1492 1490 1490 1489 1494 1472 1468 1467 1466 1469 1473 1477 1479 1482 1484 1485 1486 1486 1492 1503 1487 1482 1472 1471 1466 1471
1505 1504 1503 1502 1502 1502 1501 1501 1500 1499 1500 1499 1499 1498 1497 1497 1497 1494 1493 1492 1493 1490 1487 1482 1477 1472 1465 1465 1467 1465 1466 1471 1474 1476 1479 1479 1488 1491 1485 1480 1474 1471 1473 1472 1464 1459 1468
1499 1498 1497 1496 1495 1495 1495 1495 1495 1496 1496 1496 1495 1495 1495 1494 1495 1493 1493 1493 1492 1496 1482 1475 1472 1467 1465 1465 1468 1463 1465 1470 1469 1471 1474 1481 1480 1474 1472 1470 1470 1467 1470 1469 1460 1456 1460
1492 1492 1491 1490 1489 1489 1489 1489 1489 1490 1491 1492 1493 1493 1493 1492 1493 1492 1491 1489 1490 1491 1485 1462 1459 1455 1453 1460 1458 1458 1462 1463 1465 1469 1469 1475 1464 1465 1467 1466 1466 1462 1465 1465 1467 1460 1458
1486 1485 1484 1483 1482 1482 1483 1484 1485 1485 1486 1487 1489 1491 1491 1491 1493 1489 1488 1490 1488 1491 1488 1455 1442 1433 1439 1449 1450 1451 1454 1459 1462 1464 1464 1465 1458 1461 1461 1460 1460 1468 1452 1455 1458 1465 1482
1478 1478 1477 1476 1475 1475 1476 1478 1479 1480 1481 1483 1485 1487 1489 1490 1489 1487 1488 1485 1485 1489 1508 1435 1425 1424 1425 1433 1437 1442 1445 1453 1454 1457 1460 1456 1455 1456 1457 1453 1450 1459 1451 1453 1456 1466 1465
1469 1469 1469 1468 1467 1468 1469 1470 1471 1473 1476 1478 1480 1483 1486 1487 1486 1484 1486 1485 1484 1492 1477 1431 1417 1419 1424 1433 1432 1433 1438 1446 1449 1454 1451 1450 1447 1447 1448 1445 1445 1446 1450 1450 1454 1464 1491
1460 1459 1459 1459 1459 1460 1462 1463 1465 1467 1470 1472 1475 1478 1481 1484 1482 1486 1485 1485 1489 1483 1436 1427 1420 1418 1422 1428 1433 1434 1439 1442 1450 1459 1455 1450 1445 1441 1441 1447 1443 1447 1457 1481 1489 1495 1498
1451 1450 1450 1450 1450 1451 1453 1455 1458 1460 1463 1467 1470 1474 1476 1479 1482 1484 1484 1486 1480 1438 1434 1411 1418 1420 1422 1423 1427 1430 1436 1441 1439 1442 1450 1458 1459 1440 1433 1438 1446 1447 1453 1484 1490 1504 1481
1440 1440 1440 1440 1441 1442 1444 1447 1450 1453 1457 1462 1466 1468 1471 1475 1478 1481 1483 1477 1454 1440 1428 1427 1424 1432 1426 1418 1422 1428 1430 1435 1435 1434 1447 1449 1444 1428 1428 1431 1435 1444 1454 1444 1465 1470 1483
1431 1430 1429 1430 1430 1432 1435 1438 1441 1445 1450 1456 1458 1462 1464 1471 1475 1478 1476 1465 1441 1432 1432 1434 1437 1428 1428 1422 1424 1426 1429 1419 1429 1427 1431 1434 1445 1429 1425 1426 1427 1433 1435 1457 1461 1487 1490
1419 1419 1418 1418 1420 1421 1424 1428 1433 1437 1442 1448 1452 1454 1453 1466 1471 1474 1458 1440 1431 1437 1440 1442 1436 1434 1428 1426 1428 1426 1433 1416 1415 1420 1422 1429 1439 1436 1425 1424 1430 1434 1439 1442 1446 1463 1482
1406 1405 1405 1406 1407 1409 1413 1418 1423 1428 1434 1439 1442 1444 1447 1457 1463 1458 1439 1433 1436 1431 1435 1434 1433 1433 1434 1429 1428 1426 1427 1422 1418 1422 1419 1420 1431 1443 1430 1417 1414 1418 1428 1434 1463 1462 1457
1392 1391 1391 1392 1394 1397 1400 1404 1410 1416 1423 1430 1430 1436 1442 1445 1441 1437 1433 1429 1433 1436 1434 1434 1432 1431 1430 1431 1439 1425 1424 1420 1423 1429 1424 1415 1421 1440 1433 1419 1411 1414 1419 1421 1428 1441 1454
1378 1377 1377 1378 1380 1383 1386 1391 1397 1404 1411 1419 1422 1425 1430 1430 1423 1417 1419 1418 1429 1432 1432 1432 1429 1434 1431 1431 1426 1424 1419 1419 1421 1422 1422 1418 1406 1414 1424 1421 1416 1420 1416 1415 1422 1449 1446
1363 1362 1362 1363 1365 1368 1372 1377 1383 1390 1398 1406 1403 1402 1400 1403 1403 1413 1423 1417 1419 1425 1423 1423 1426 1425 1423 1433 1427 1424 1421 1421 1416 1420 1424 1423 1414 1404 1403 1408 1409 1410 1413 1414 1418 1419 1430
1348 1347 1348 1350 1352 1356 1359 1364 1370 1377 1385 1390 1385 1389 1394 1392 1404 1414 1416 1406 1403 1406 1416 1417 1419 1416 1426 1427 1420 1422 1420 1421 1423 1423 1431 1420 1418 1406 1407 1400 1402 1409 1407 1406 1407 1410 1411
1333 1334 1335 1337 1340 1344 1349 1353 1359 1365 1373 1370 1374 1379 1385 1384 1394 1405 1392 1379 1390 1414 1412 1411 1409 1419 1418 1408 1421 1417 1412 1413 1417 1425 1440 1439 1431 1409 1410 1404 1405 1420 1400 1403 1401 1400 1402
1320 1321 1322 1324 1327 1331 1335 1340 1346 1353 1358 1363 1361 1370 1376 1373 1380 1377 1382 1392 1395 1404 1408 1407 1407 1409 1398 1419 1419 1418 1419 1419 1420 1422 1432 1440 1443 1418 1417 1412 1425 1390 1387 1394 1397 1395 1394
1307 1306 1307 1309 1311 1315 1320 1325 1332 1339 1347 1353 1351 1359 1360 1366 1369 1376 1383 1385 1391 1402 1403 1404 1398 1402 1408 1411 1416 1419 1427 1423 1419 1418 1425 1428 1443 1426 1414 1406 1403 1393 1386 1388 1392 1393 1385
1291 1290 1291 1292 1294 1298 1303 1310 1318 1326 1335 1344 1346 1350 1356 1360 1356 1360 1370 1377 1385 1393 1399 1396 1397 1402 1405 1405 1414 1422 1423 1414 1412 1413 1417 1422 1437 1440 1425 1407 1410 1388 1384 1380 1377 1395 1379
1277 1276 1275 1275 1277 1281 1287 1294 1303 1312 1324 1334 1340 1344 1354 1355 1357 1361 1361 1366 1374 1383 1389 1390 1393 1398 1400 1407 1415 1417 1416 1411 1414 1412 1424 1435 1431 1434 1433 1421 1399 1375 1374 1376 1396 1397 1373
1265 1261 1258 1257 1259 1265 1272 1280 1289 1300 1311 1324 1332 1337 1347 1353 1353 1355 1358 1361 1367 1375 1379 1379 1395 1392 1395 1405 1409 1413 1415 1413 1406 1406 1412 1418 1422 1424 1417 1414 1409 1384 1375 1383 1379 1373 1374
1252 1248 1243 1241 1244 1250 1257 1266 1276 1288 1300 1316 1324 1331 1346 1355 1354 1353 1354 1358 1362 1365 1371 1375 1377 1380 1382 1389 1394 1398 1407 1404 1401 1406 1395 1407 1398 1403 1400 1402 1384 1386 1390 1378 1378 1377 1375
Wind_Speed
21 18 27 32 28 25 25 23 20 19 20 22 22 22 21 19 20 19 19 19 19 20 21 20 20 20 19 8 22 16 11 11 10 11 13 10 13 18 7 9 16 4 5 13 12 16 4
17 16 16 17 17 21 22 23 26 23 21 22 22 22 22 22 21 20 20 18 19 19 19 18 17 18 15 12 6 8 15 17 14 13 11 11 14 16 9 13 7 12 12 9 18 21 6
19 17 18 18 19 19 18 18 20 23 25 23 21 21 22 23 24 22 21 19 18 19 18 16 16 17 22 32 10 7 8 13 11 13 11 6 13 11 12 8 14 23 7 7 14 16 4
20 20 20 21 21 20 21 20 19 20 19 25 25 22 21 23 24 24 23 22 19 18 18 15 15 14 15 16 12 25 18 16 15 13 15 15 11 7 9 14 13 7 7 5 10 9 2
22 22 21 22 23 22 22 22 22 19 20 20 19 24 22 22 25 25 24 22 19 19 20 16 15 9 16 7 14 21 20 20 17 14 14 16 11 8 14 4 6 5 8 8 8 5 5
23 23 24 24 24 24 23 23 23 23 22 20 18 19 21 20 21 25 25 22 16 21 20 11 6 8 13 9 10 7 20 19 20 16 13 15 7 4 4 2 6 8 4 4 1 5 3
25 25 26 27 27 28 28 28 26 24 22 20 20 20 19 21 19 21 22 17 6 5 9 12 8 13 22 13 10 7 9 20 21 19 9 12 4 8 10 13 17 13 12 6 4 6 7
27 26 27 28 28 29 30 29 27 25 24 22 19 19 18 17 17 20 16 10 5 9 14 18 26 35 35 31 17 15 13 17 19 12 7 7 15 14 15 18 17 16 10 7 6 1 4
28 27 29 30 30 28 26 24 25 25 24 23 19 16 15 16 15 19 14 15 12 12 8 22 31 29 36 28 33 32 20 30 9 9 12 13 12 18 19 18 16 15 7 5 3 5 10
29 28 29 30 30 28 26 25 24 23 22 22 20 17 14 12 12 8 7 8 6 7 5 7 10 12 23 26 12 34 25 27 7 16 15 12 20 20 17 18 12 9 6 9 5 1 4
29 30 32 31 30 29 28 26 25 23 23 22 22 17 13 9 7 10 1 7 8 8 5 7 6 11 15 26 15 20 34 23 19 16 9 14 7 12 17 12 6 11 7 1 2 3 2
32 33 33 32 31 31 30 27 25 23 22 21 20 19 14 15 18 15 10 5 8 3 10 7 8 7 8 26 14 4 24 33 20 15 17 15 22 15 13 9 8 9 4 3 3 1 4
35 35 34 35 34 33 31 29 27 24 21 19 18 18 19 15 20 6 12 3 2 7 5 6 4 9 7 8 18 14 7 12 12 15 17 16 22 14 14 7 7 6 2 1 3 2 6
35 37 36 36 35 34 33 29 28 25 22 19 18 18 21 19 16 9 7 2 9 10 17 1 1 1 10 9 10 14 16 12 16 13 5 13 14 19 12 14 8 10 7 5 4 2 4
37 38 39 38 34 33 32 31 29 26 23 20 17 21 23 22 17 16 7 9 10 6 13 15 17 14 12 8 6 13 16 16 12 19 15 11 18 6 16 9 12 10 6 8 4 3 2
37 38 40 38 36 34 33 31 30 28 25 22 22 24 28 21 16 19 5 18 19 24 14 11 9 6 13 9 7 9 8 8 17 20 19 6 7 18 15 12 10 9 3 2 0 4 4
39 41 40 39 37 36 36 34 31 30 29 24 26 13 17 26 22 12 12 16 22 21 17 15 15 13 14 10 9 8 11 11 9 14 20 19 15 12 11 13 15 4 7 3 4 5 4
42 42 41 40 38 38 38 38 35 33 31 29 27 6 17 36 13 10 20 12 13 12 26 17 8 12 14 17 15 11 5 6 20 11 17 18 4 13 22 11 11 9 13 10 5 5 4
45 44 43 41 41 40 39 39 38 37 37 35 19 13 27 47 12 17 18 29 25 21 13 5 14 9 8 17 9 4 2 7 15 13 10 11 15 14 12 12 9 19 13 10 5 5 7
46 45 44 43 42 40 40 38 39 40 41 42 16 6 12 41 35 25 23 26 25 12 23 26 17 17 19 17 14 10 3 3 17 17 33 19 14 15 20 5 5 6 7 9 9 5 5
46 44 42 41 39 39 38 40 41 42 43 45 22 9 16 13 24 20 18 7 26 18 19 23 15 23 21 9 15 10 3 6 7 18 15 6 10 22 18 14 12 14 21 19 17 14 10
44 42 39 36 34 32 33 33 35 38 44 50 15 9 17 11 28 22 19 28 28 20 17 20 19 17 14 19 21 13 4 3 1 9 11 11 12 6 7 19 20 15 16 21 16 6 14
39 36 36 36 35 34 35 36 37 42 42 38 32 32 21 17 15 17 28 34 30 17 20 31 18 18 19 23 14 9 12 15 11 4 6 11 10 7 15 3 6 12 18 14 9 15 12
37 37 38 38 38 39 39 39 40 43 46 45 35 24 16 6 18 23 28 27 26 19 20 18 35 16 38 12 13 5 13 7 7 7 13 4 16 4 5 4 8 16 5 13 10 13 12
39 40 39 39 40 40 41 41 43 45 48 47 24 22 16 10 17 22 25 20 31 23 22 24 34 23 13 20 8 4 2 2 7 7 12 6 4 5 3 11 5 12 7 12 10 12 7
38 37 36 37 39 42 46 47 47 47 49 47 35 29 12 5 12 39 22 27 14 16 17 23 35 31 21 4 4 7 4 3 4 1 5 10 2 2 5 8 16 3 15 11 1 7 4
34 36 39 39 40 40 42 44 46 49 50 49 41 32 19 2 16 33 16 22 33 16 11 17 17 17 19 3 3 6 6 6 4 3 5 3 3 3 11 4 7 6 9 4 5 5 7
31 33 37 39 40 40 40 42 45 47 52 51 43 36 32 7 7 20 30 18 29 27 12 9 7 13 2 4 4 4 4 5 3 6 7 8 8 5 4 4 6 18 7 12 6 16 21
28 26 26 24 29 36 37 39 42 48 52 52 29 35 33 24 9 26 27 35 25 34 28 20 11 6 12 4 4 4 3 6 15 9 3 4 6 7 8 5 9 24 11 26 23 23 27
Wind_Direction
291 274 271 280 288 285 278 279 284 291 295 290 290 285 284 288 291 293 296 303 308 306 307 305 305 309 313 283 255 283 289 278 267 251 226 218 240 247 253 286 310 226 250 289 321 314 134
299 303 300 297 289 292 288 284 277 279 287 291 297 293 286 282 282 286 290 297 302 305 310 307 308 305 305 264 283 246 280 280 258 247 227 225 254 262 303 293 319 312 299 321 302 285 141
296 292 292 292 296 298 297 296 290 281 276 283 289 296 294 283 281 280 284 287 295 302 306 305 305 304 286 258 239 217 249 280 238 235 221 224 273 298 311 317 321 316 322 305 277 253 104
294 293 291 291 288 287 293 296 294 291 293 276 277 288 294 296 290 282 279 284 288 297 297 301 297 294 263 295 268 227 214 229 252 213 242 262 295 297 295 285 300 298 306 274 285 122 164
290 289 290 288 287 287 286 287 291 292 290 293 291 275 285 294 297 291 281 279 285 292 290 297 291 273 268 312 260 239 217 228 233 230 240 259 277 280 274 280 304 260 249 259 263 196 138
291 291 291 292 293 293 292 292 290 287 288 293 303 299 276 289 299 298 288 282 287 279 286 288 251 268 261 277 272 266 209 207 223 222 234 241 259 224 302 201 243 259 232 274 297 101 134
287 288 289 289 287 285 284 285 287 289 291 292 289 296 298 276 297 303 302 311 309 281 308 220 241 229 284 274 277 215 218 202 221 221 202 218 197 232 239 231 241 260 280 278 219 196 166
285 289 290 290 287 285 282 279 278 279 283 286 291 285 296 279 287 293 300 284 215 328 295 270 262 260 267 269 283 276 204 202 215 221 181 230 232 229 241 253 257 262 270 269 317 201 191
288 289 288 289 288 285 283 280 275 272 272 275 281 286 287 290 283 295 293 272 284 331 283 283 256 242 243 248 244 256 217 206 205 218 204 212 232 220 236 250 257 271 258 286 252 190 267
287 288 287 287 285 280 280 276 274 273 271 269 267 276 275 292 281 315 286 322 292 302 285 258 235 238 224 220 253 234 231 203 223 220 224 233 235 245 248 241 243 267 260 247 250 242 224
286 285 285 285 282 278 277 275 270 268 268 267 260 260 266 260 236 251 333 251 142 170 308 244 218 204 203 180 150 210 216 229 208 219 194 226 239 240 244 251 227 257 249 323 301 315 316
286 286 287 284 279 277 276 275 273 268 262 257 256 247 252 251 239 223 289 287 147 117 241 267 159 164 136 195 228 29 193 219 221 219 243 253 234 244 240 242 227 255 204 239 295 330 335
286 286 285 283 280 277 274 271 270 268 259 254 247 241 236 240 239 257 282 309 165 204 210 247 206 156 186 181 213 224 208 198 205 208 228 244 254 251 247 240 226 258 202 247 338 329 229
287 286 283 284 280 274 275 270 263 263 256 251 242 232 232 235 239 200 302 224 229 234 235 310 13 167 187 186 207 214 225 224 219 217 180 226 248 237 232 212 201 242 184 156 220 214 267
287 285 281 284 275 271 268 266 259 257 253 239 233 227 230 226 224 217 227 207 227 217 203 253 282 299 273 196 194 195 220 236 243 216 209 201 237 245 232 233 193 239 210 187 175 39 64
285 283 281 282 272 267 264 260 257 250 248 231 224 224 227 210 208 211 204 227 235 221 263 292 272 255 284 303 230 187 203 209 233 215 213 237 241 238 253 220 238 186 189 237 348 156 225
285 283 281 278 272 265 261 257 251 244 239 229 220 218 218 198 197 209 222 227 243 249 239 256 276 278 289 294 307 318 301 245 213 213 206 216 240 275 241 226 211 210 219 195 162 150 197
286 283 280 275 271 265 261 253 248 240 231 225 210 212 184 183 185 210 225 205 236 248 216 252 266 268 279 291 299 311 295 234 334 334 206 210 189 232 253 277 221 198 203 200 146 200 191
286 283 279 275 268 263 258 251 241 235 226 218 210 185 179 182 201 217 230 234 247 254 265 279 236 238 261 274 289 195 301 331 10 360 322 219 222 240 273 254 257 215 215 200 190 135 201
284 281 277 272 267 261 254 244 236 231 224 216 195 167 181 198 212 210 210 229 235 256 232 251 269 275 271 273 270 278 275 305 341 339 329 319 208 220 228 248 182 253 245 243 215 168 207
283 278 273 268 262 254 248 243 234 223 220 213 198 209 188 198 210 213 207 209 231 229 232 202 244 245 243 255 265 247 189 341 322 336 332 308 258 230 226 216 239 208 224 248 245 220 208
279 274 268 261 254 249 242 233 223 221 218 216 190 182 190 216 205 205 217 221 231 218 214 216 226 237 246 247 244 271 172 132 18 349 335 324 264 224 239 212 216 232 224 223 231 237 223
274 268 264 260 255 251 242 234 227 223 222 213 213 212 189 206 187 191 214 227 228 219 251 228 224 223 240 245 292 302 219 157 151 162 299 308 331 211 243 242 225 260 237 253 229 249 246
272 270 268 261 256 252 245 238 230 224 222 220 215 192 198 199 196 205 212 221 235 220 230 261 222 223 233 252 261 113 86 86 157 172 170 278 321 276 184 132 216 256 198 249 241 245 256
276 272 266 259 254 247 239 234 231 223 223 224 216 191 192 207 201 205 209 211 226 227 225 239 253 251 240 220 215 254 348 38 227 197 170 131 310 306 168 210 249 279 240 204 209 248 225
278 270 264 260 254 247 239 236 230 225 221 224 225 218 192 194 202 203 199 204 209 207 239 250 248 251 266 211 154 216 220 247 230 286 167 155 229 33 312 206 217 147 245 256 49 260 253
274 271 271 263 254 242 236 229 225 223 216 217 215 217 195 175 209 209 201 196 201 197 213 229 237 252 255 180 207 190 218 202 264 310 147 148 104 354 278 261 289 221 181 235 220 231 258
277 275 273 264 246 238 231 225 223 219 215 209 209 211 201 210 281 212 216 202 197 202 204 204 222 238 242 152 142 229 137 207 265 209 179 166 172 169 278 195 255 18 301 211 220 270 257
286 285 275 258 232 230 228 219 217 213 212 200 196 194 205 210 252 218 210 206 222 209 207 202 212 223 207 153 169 157 224 180 214 244 173 171 189 172 158 267 287 321 316 317 350 338 298